Total_Precipitation_Accumulation
0.61 0.84 1.10 1.04 0.95 1.02 1.06 1.16 1.18 1.10 0.83 0.84 0.84 0.70 0.65 0.67 0.70 0.69 0.62 0.54 0.52 0.55 0.53 0.51 0.53 0.59 0.60 0.62 0.64 0.63 0.60 0.69 0.72 0.76 0.90 1.13 1.41 1.52 1.62 1.54 1.34 1.27 1.39 1.67
0.70 0.76 0.65 0.60 0.69 0.89 1.04 1.23 1.20 1.08 0.76 0.70 0.70 0.61 0.53 0.53 0.60 0.57 0.55 0.53 0.47 0.48 0.43 0.40 0.42 0.45 0.46 0.49 0.55 0.58 0.57 0.64 0.70 0.74 0.91 1.09 1.25 1.25 1.41 1.53 1.49 1.42 1.41 1.56
0.68 0.63 0.50 0.54 0.69 0.91 1.02 1.04 1.02 0.99 0.80 0.69 0.64 0.67 0.50 0.46 0.49 0.46 0.43 0.46 0.41 0.42 0.42 0.39 0.38 0.38 0.39 0.40 0.39 0.42 0.47 0.54 0.66 0.80 1.02 1.24 1.45 1.52 1.56 1.47 1.55 1.57 1.48 1.52
0.61 0.51 0.49 0.61 0.69 0.77 0.95 0.70 0.64 0.70 0.89 0.95 0.76 0.93 0.61 0.50 0.52 0.47 0.41 0.38 0.37 0.38 0.40 0.45 0.41 0.42 0.40 0.37 0.34 0.36 0.46 0.60 0.80 0.99 1.22 1.47 1.68 1.72 1.59 1.59 1.62 1.51 1.43 1.40
0.55 0.45 0.47 0.60 0.57 0.55 0.64 0.54 0.52 0.60 0.79 0.78 0.59 0.71 0.62 0.49 0.59 0.54 0.47 0.42 0.37 0.36 0.39 0.41 0.40 0.43 0.43 0.42 0.42 0.47 0.66 0.88 1.14 1.35 1.61 1.90 1.88 1.76 1.64 1.61 1.60 1.54 1.53 1.49
0.46 0.38 0.42 0.45 0.44 0.43 0.46 0.53 0.59 0.66 0.84 0.83 0.52 0.59 0.64 0.48 0.50 0.52 0.50 0.45 0.37 0.33 0.40 0.48 0.54 0.63 0.69 0.71 0.85 1.03 1.28 1.44 1.53 1.65 1.82 1.93 1.88 1.87 1.80 1.62 1.54 1.54 1.58 1.63
0.49 0.40 0.33 0.31 0.42 0.42 0.46 0.77 1.11 1.15 1.12 0.81 0.42 0.61 0.66 0.45 0.37 0.38 0.41 0.37 0.31 0.36 0.46 0.61 0.78 0.92 1.05 1.19 1.34 1.47 1.62 1.75 1.70 1.67 1.75 1.80 1.77 1.74 1.70 1.63 1.56 1.50 1.51 1.56
0.55 0.52 0.32 0.25 0.33 0.44 0.48 0.70 1.16 1.30 1.08 0.76 0.56 0.81 0.74 0.52 0.39 0.31 0.25 0.24 0.35 0.50 0.64 0.76 0.85 0.97 1.15 1.32 1.39 1.39 1.48 1.59 1.57 1.53 1.54 1.54 1.58 1.57 1.50 1.41 1.38 1.41 1.50 1.49
0.40 0.41 0.21 0.19 0.23 0.31 0.46 0.51 0.56 0.81 0.69 0.69 0.74 0.88 0.77 0.51 0.42 0.34 0.29 0.32 0.48 0.70 0.91 1.07 1.19 1.30 1.34 1.40 1.48 1.40 1.38 1.44 1.47 1.42 1.36 1.39 1.40 1.44 1.42 1.33 1.32 1.30 1.29 1.22
0.25 0.31 0.20 0.18 0.23 0.25 0.37 0.49 0.65 0.96 1.10 1.09 1.00 0.99 0.87 0.64 0.56 0.56 0.63 0.72 0.77 0.87 1.15 1.45 1.73 1.89 1.70 1.45 1.39 1.39 1.31 1.32 1.43 1.44 1.38 1.35 1.41 1.40 1.37 1.37 1.29 1.27 1.26 1.17
0.18 0.30 0.26 0.23 0.28 0.30 0.38 0.53 0.68 0.89 1.01 1.30 1.49 1.41 1.06 1.04 1.03 1.06 1.14 1.19 1.20 1.30 1.28 1.45 1.69 1.88 1.78 1.46 1.24 1.29 1.35 1.35 1.37 1.37 1.39 1.37 1.33 1.22 1.20 1.23 1.19 1.15 1.14 1.18
0.16 0.27 0.30 0.24 0.26 0.33 0.48 0.61 0.79 1.14 1.07 1.07 1.35 1.42 1.12 1.09 1.10 1.17 1.33 1.39 1.38 1.29 1.19 1.19 1.27 1.35 1.41 1.27 1.08 1.05 1.21 1.31 1.29 1.28 1.32 1.30 1.19 1.09 1.07 1.06 0.98 0.86 0.81 0.82
0.21 0.33 0.45 0.45 0.51 0.53 0.70 0.75 0.64 0.67 0.81 0.95 1.23 1.14 0.76 0.70 0.86 1.02 1.16 1.23 1.16 1.11 1.21 1.18 1.10 1.04 1.07 1.05 0.98 0.96 1.10 1.25 1.30 1.28 1.18 1.08 1.02 0.98 0.98 0.90 0.85 0.80 0.69 0.66
0.21 0.28 0.38 0.55 0.56 0.55 0.74 0.83 0.69 0.65 0.82 0.80 0.78 0.69 0.53 0.56 0.71 0.78 0.81 0.81 0.81 0.87 0.92 0.89 0.85 0.78 0.76 0.79 0.84 0.90 1.04 1.12 1.24 1.36 1.27 1.14 1.04 0.99 0.95 0.88 0.85 0.79 0.74 0.74
0.17 0.18 0.17 0.20 0.22 0.29 0.48 0.60 0.51 0.43 0.43 0.53 0.48 0.48 0.52 0.59 0.67 0.63 0.57 0.55 0.54 0.54 0.53 0.55 0.60 0.59 0.52 0.51 0.52 0.63 0.78 0.94 1.13 1.36 1.36 1.21 1.15 1.08 0.94 0.86 0.87 0.84 0.86 0.82
0.15 0.17 0.14 0.13 0.14 0.19 0.29 0.33 0.28 0.22 0.26 0.36 0.41 0.49 0.53 0.60 0.66 0.60 0.51 0.43 0.37 0.35 0.37 0.40 0.42 0.47 0.39 0.33 0.34 0.37 0.49 0.69 0.85 1.04 1.13 1.09 1.01 0.89 0.85 0.84 0.81 0.76 0.75 0.71
0.15 0.18 0.20 0.14 0.13 0.18 0.26 0.24 0.24 0.27 0.28 0.31 0.43 0.54 0.57 0.69 0.87 0.77 0.59 0.49 0.37 0.31 0.30 0.32 0.35 0.39 0.40 0.37 0.34 0.35 0.42 0.52 0.63 0.79 0.89 0.88 0.82 0.73 0.71 0.74 0.71 0.65 0.59 0.60
0.12 0.21 0.29 0.25 0.28 0.39 0.35 0.26 0.33 0.43 0.37 0.36 0.46 0.53 0.62 0.92 1.12 0.75 0.52 0.47 0.39 0.32 0.30 0.30 0.32 0.32 0.32 0.34 0.35 0.36 0.37 0.40 0.45 0.55 0.61 0.62 0.62 0.60 0.60 0.59 0.58 0.59 0.55 0.51
0.08 0.20 0.35 0.38 0.40 0.56 0.47 0.27 0.39 0.46 0.42 0.33 0.43 0.49 0.50 0.53 0.48 0.31 0.21 0.22 0.25 0.21 0.21 0.20 0.20 0.19 0.21 0.22 0.25 0.28 0.32 0.33 0.33 0.36 0.40 0.43 0.46 0.49 0.53 0.54 0.55 0.64 0.63 0.58
0.09 0.16 0.31 0.35 0.38 0.44 0.42 0.24 0.27 0.38 0.47 0.24 0.24 0.26 0.21 0.16 0.16 0.18 0.16 0.12 0.12 0.11 0.12 0.13 0.11 0.11 0.13 0.16 0.18 0.21 0.25 0.28 0.29 0.30 0.32 0.36 0.38 0.41 0.46 0.53 0.53 0.50 0.49 0.53
0.12 0.17 0.26 0.29 0.31 0.24 0.20 0.20 0.25 0.45 0.46 0.20 0.16 0.15 0.11 0.10 0.10 0.14 0.17 0.12 0.09 0.08 0.09 0.09 0.10 0.10 0.12 0.15 0.18 0.20 0.24 0.27 0.28 0.33 0.35 0.36 0.37 0.39 0.42 0.41 0.36 0.36 0.40 0.39
0.17 0.23 0.25 0.27 0.31 0.26 0.18 0.22 0.29 0.29 0.19 0.16 0.16 0.15 0.14 0.11 0.09 0.10 0.13 0.10 0.08 0.08 0.08 0.07 0.09 0.12 0.12 0.13 0.17 0.20 0.25 0.27 0.27 0.29 0.31 0.31 0.30 0.31 0.33 0.34 0.31 0.29 0.33 0.35
0.18 0.22 0.28 0.31 0.30 0.25 0.22 0.24 0.23 0.22 0.20 0.17 0.19 0.16 0.14 0.13 0.11 0.10 0.10 0.09 0.08 0.08 0.09 0.09 0.12 0.17 0.20 0.16 0.17 0.22 0.27 0.30 0.28 0.27 0.26 0.27 0.26 0.27 0.27 0.28 0.31 0.33 0.33 0.35
0.16 0.14 0.21 0.26 0.21 0.20 0.20 0.20 0.21 0.21 0.20 0.16 0.16 0.15 0.15 0.16 0.14 0.12 0.10 0.10 0.09 0.07 0.09 0.12 0.16 0.20 0.25 0.22 0.22 0.24 0.26 0.28 0.28 0.25 0.24 0.25 0.25 0.25 0.24 0.25 0.28 0.30 0.31 0.31
0.16 0.17 0.19 0.22 0.19 0.18 0.16 0.16 0.15 0.15 0.14 0.14 0.14 0.13 0.13 0.14 0.15 0.13 0.10 0.11 0.10 0.09 0.08 0.12 0.18 0.21 0.21 0.22 0.26 0.29 0.28 0.25 0.25 0.24 0.24 0.22 0.25 0.26 0.24 0.21 0.22 0.26 0.29 0.36
0.13 0.16 0.21 0.22 0.17 0.18 0.16 0.13 0.11 0.12 0.11 0.11 0.13 0.12 0.10 0.10 0.11 0.10 0.10 0.12 0.11 0.10 0.11 0.13 0.15 0.17 0.19 0.20 0.24 0.26 0.26 0.23 0.23 0.25 0.24 0.23 0.21 0.22 0.23 0.24 0.21 0.24 0.28 0.36